Location: *
(43.9900°N, 3.4811°E)
Time: 06:43:48
(UTC+00:00)

TSX-5 - Pass Details

Date: 25 August 2019
Orbit: 405 x 1332 km, 68.9° (Epoch: 15 September)

Event Time Altitude Azimuth Distance (km) Brightness Sun altitude
Rises 19:20:01 0° 334° (NNW) 2,449 8.0 -8.5°
Reaches altitude 10° 19:21:57 10° 338° (NNW) 1,640 7.0 -8.8°
Maximum altitude 19:25:31 66° 61° (ENE) 590 3.8 -9.4°
Drops below altitude 10° 19:29:54 10° 144° (SE) 2,019 6.2 -10.1°
Enters shadow 19:29:55 10° 144° (SE) 2,029 6.2 -10.1°
